Vorticity
10 9 8 5 3 2 2 1 -0 1 3 6 6 9 7 5 7 7 8 0 9 6
9 7 6 5 4 4 3 2 -0 2 6 8 9 8 9 6 6 4 9 9 6 11
6 6 5 5 5 5 4 4 4 4 5 5 9 12 7 5 6 -0 -0 4 4 8
5 5 5 5 5 6 7 8 7 7 6 5 7 11 11 9 10 5 6 10 12 11
18 23 21 19 17 16 14 12 12 11 13 16 19 16 8 7 11 16 20 14 -1 8
11 11 12 14 15 16 17 10 6 12 13 10 8 11 12 19 14 11 2 9 11 25
26 19 14 18 23 25 26 27 27 25 21 11 8 10 8 13 14 7 11 7 11 3
15 16 12 22 21 13 7 21 23 23 27 27 23 8 15 22 19 12 15 10 29 -12
22 38 33 17 8 49 28 33 17 12 7 19 24 15 7 12 13 13 9 3 1 6
18 31 26 2 13 7 21 30 22 25 23 6 16 21 8 8 15 9 17 9 1 9
14 16 22 15 24 38 10 8 14 15 18 21 -8 -6 10 4 13 15 -6 18 -3 10
14 8 20 27 5 12 10 -5 22 12 9 29 22 16 13 9 18 4 10 7 16 8
-6 15 12 -13 28 14 28 11 35 26 19 7 27 -1 -3 -1 24 11 11 -2 0 7
7 12 10 26 5 -4 19 33 12 14 19 14 17 11 11 2 2 8 10 6 7 8
Height
5731 5731 5732 5732 5733 5733 5733 5734 5733 5732 5732 5732 5731 5730 5730 5730 5730 5730 5729 5728 5728 5727
5720 5720 5719 5718 5718 5718 5718 5719 5719 5718 5719 5718 5718 5718 5717 5717 5718 5717 5716 5716 5715 5716
5707 5706 5704 5703 5703 5702 5702 5702 5701 5701 5702 5703 5704 5704 5705 5705 5705 5704 5704 5704 5705 5703
5692 5691 5689 5687 5685 5684 5683 5683 5684 5684 5685 5687 5688 5690 5692 5692 5691 5692 5692 5692 5692 5690
5678 5674 5671 5668 5666 5665 5665 5665 5666 5667 5669 5671 5673 5675 5677 5678 5679 5679 5679 5679 5678 5677
5663 5660 5656 5652 5649 5647 5645 5646 5649 5651 5654 5657 5659 5662 5664 5664 5665 5667 5669 5668 5666 5666
5649 5644 5639 5635 5631 5628 5627 5628 5631 5634 5638 5643 5646 5649 5650 5652 5653 5656 5656 5655 5654 5655
5638 5632 5626 5621 5617 5615 5613 5615 5617 5619 5624 5628 5633 5636 5638 5641 5643 5643 5644 5644 5643 5642
5628 5620 5615 5612 5608 5602 5599 5601 5605 5610 5614 5621 5622 5626 5629 5632 5633 5634 5634 5633 5632 5631
5621 5614 5608 5604 5602 5598 5594 5594 5597 5602 5609 5612 5615 5618 5622 5624 5625 5625 5624 5623 5621 5620
5616 5610 5605 5601 5597 5594 5592 5592 5594 5598 5602 5602 5606 5611 5615 5617 5617 5616 5616 5613 5612 5609
5614 5608 5603 5599 5596 5593 5593 5593 5594 5595 5596 5599 5603 5605 5608 5609 5609 5608 5607 5605 5602 5599
5612 5607 5602 5599 5595 5594 5591 5592 5591 5592 5595 5597 5600 5602 5604 5604 5602 5601 5600 5597 5592 5587
5611 5607 5603 5600 5598 5596 5594 5594 5595 5595 5596 5597 5598 5599 5599 5598 5596 5593 5589 5586 5583 5578